Tracking 19245 objects as of 18-Aug-2018
HD Live streaming from Space Station
objects crossing your sky now

OPS 9321 (IDSCS 8)

Track OPS 9321 (IDSCS 8) now!
OPS 9321 (IDSCS 8) is classified as:


NORAD ID: 2645
Int'l Code: 1967-003A
Perigee: 33,536.3 km
Apogee: 33,821.9 km
Inclination: 3.2 °
Period: 1,329.4 minutes
Semi major axis: 40050 km
RCS: 0.3981 m2 (medium)
Launch date: January 18, 1967
Source: United States (US)
Launch site: AIR FORCE EASTERN TEST RANGE (AFETR)
aabbcc
Your satellite tracking list
Your tracking list is empty




NASA's NSSDC Master Catalog

Two Line Element Set (TLE):
1 02645U 67003A   18228.51224580 -.00000121  00000-0  00000+0 0  9995
2 02645   3.2380  57.9662 0035644  49.6822 153.5964  1.08317213203456
Source of the keplerian elements: AFSPC